Weather reports worldwide

Advertisment
Bremen, Germany (10224): temperature & dewpoint: 30.05.2020 21:00:00 - 05.06.2020 21:00:00 (CEST)Bremen, Germany (10224): temperature 5cm & temperature -5cm: 30.05.2020 21:00:00 - 05.06.2020 21:00:00 (CEST)Bremen, Germany (10224): temperature -20cm & temperature -100cm: 30.05.2020 21:00:00 - 05.06.2020 21:00:00 (CEST)Bremen, Germany (10224): wind speed & gusts: 30.05.2020 21:00:00 - 05.06.2020 21:00:00 (CEST)Bremen, Germany (10224): wind direction: 30.05.2020 21:00:00 - 05.06.2020 21:00:00 (CEST)Bremen, Germany (10224): reduced air pressure: 30.05.2020 21:00:00 - 05.06.2020 21:00:00 (CEST)Bremen, Germany (10224): visibility: 30.05.2020 21:00:00 - 05.06.2020 21:00:00 (CEST)Bremen, Germany (10224): sunshine duration: 30.05.2020 21:00:00 - 05.06.2020 21:00:00 (CEST)Bremen, Germany (10224): precipitation: 30.05.2020 21:00:00 - 05.06.2020 21:00:00 (CEST)
Date & Time tt [°C] td [°C] tt 5cm [°C] tt -5cm [°C] tt -20cm [°C] tt -100cm [°C] ff [km/h] ff [kn] fx [km/h] fx [kn] dd ppp [hPa] vv [km] sd [min] rr [mm]
05.06.2020 21:00:00 9,7 7,9 9,1 13,2 16,8 16,0 28 15 41 22 WSW 990,9 10 0 0,0
05.06.2020 20:00:00 10,5 7,6 10,5 14,1 17,1 16,0 22 12 38 20 SW 990,0 10 0 0,0
05.06.2020 19:00:00 10,6 8,1 10,7 14,6 17,3 16,0 18 10 35 19 SSW 990,1 10 0 0,0
05.06.2020 18:00:00 10,7 8,4 10,7 15,3 17,4 16,0 22 12 41 22 S 990,1 10 0 0,1
05.06.2020 17:00:00 11,0 9,2 10,6 15,6 17,6 16,0 26 14 60 32 S 989,7 10 0 1,2
05.06.2020 16:00:00 14,3 7,3 13,6 17,6 17,5 16,0 31 17 50 27 S 990,1 10 0 0,0
05.06.2020 15:00:00 15,1 6,1 15,9 19,6 17,3 16,0 28 15 42 23 S 990,9 10 15 0,0
05.06.2020 14:00:00 15,4 5,8 19,4 20,8 17,0 16,0 22 12 41 22 S 992,0 35 50 0,0
05.06.2020 13:00:00 15,0 5,2 19,2 19,4 16,7 16,0 26 14 40 22 S 993,0 40 51 0,0
05.06.2020 12:00:00 13,8 6,4 17,0 19,1 16,5 16,0 23 13 35 19 SSW 994,0 40 54 0,0
05.06.2020 11:00:00 12,2 6,1 13,5 17,7 16,3 16,0 18 10 31 17 SSW 994,3 10 49 0,0
05.06.2020 10:00:00 12,4 6,8 14,9 16,6 16,2 16,0 19 10 29 16 SSW 994,6 35 43 0,0
05.06.2020 09:00:00 11,0 6,7 12,3 14,6 16,2 16,0 18 10 30 16 SW 994,8 35 46 0,0
05.06.2020 08:00:00 10,3 7,0 11,0 13,6 16,3 16,0 18 10 29 16 WSW 995,0 35 58 0,0
05.06.2020 07:00:00 9,4 8,0 9,7 12,2 16,5 15,9 16 9 23 13 WSW 994,7 10 29 0,0
05.06.2020 06:00:00 9,2 8,1 8,5 12,4 16,8 15,9 16 9 24 13 WSW 994,6 25 0 0,0
05.06.2020 05:00:00 9,6 9,0 9,2 12,6 17,0 15,9 13 7 24 13 WSW 994,4 10 0 0,0
05.06.2020 04:00:00 9,8 9,1 9,3 12,9 17,2 15,9 15 8 22 12 WSW 994,5 10 0 0,0
05.06.2020 03:00:00 9,9 9,3 9,4 13,2 17,5 15,9 12 7 22 12 WSW 994,4 25 0 0,0
05.06.2020 02:00:00 10,3 9,5 9,8 13,5 17,7 15,9 13 7 26 14 W 994,3 25 0 0,4
05.06.2020 01:00:00 10,6 10,0 10,2 13,8 18,0 15,9 13 7 27 15 W 994,4 10 0 0,5
05.06.2020 00:00:00 11,3 9,9 10,6 14,3 18,3 15,9 16 9 26 14 WNW 994,2 25 0 0,1
04.06.2020 23:00:00 11,4 10,3 10,9 14,7 18,5 15,9 16 9 33 18 WNW 994,1 10 0 0,5
04.06.2020 22:00:00 11,7 11,0 11,2 15,1 18,8 15,9 11 6 21 11 W 993,8 10 0 0,0
04.06.2020 21:00:00 12,0 10,9 11,6 15,6 19,0 15,8 15 8 24 13 W 993,6 10 0 0,0
04.06.2020 20:00:00 12,3 11,3 12,0 16,0 19,3 15,8 18 10 30 16 WNW 993,5 20 0 0,1
04.06.2020 19:00:00 12,3 11,3 12,3 16,5 19,5 15,8 24 13 40 21 WNW 993,3 20 0 1,3
04.06.2020 18:00:00 12,5 11,9 12,5 17,5 19,7 15,8 34 18 44 24 WNW 993,2 6 0 1,2
04.06.2020 17:00:00 14,0 12,6 13,9 18,5 19,8 15,8 9 5 33 18 WNW 993,1 10 0 0,3
04.06.2020 16:00:00 15,3 14,6 15,4 19,5 19,9 15,8 15 8 29 16 W 992,9 4,5 3 0,7
04.06.2020 15:00:00 16,3 13,6 16,8 20,8 19,8 15,7 16 9 26 14 WSW 993,3 8 0 0,0
04.06.2020 14:00:00 16,4 14,4 17,2 20,6 19,9 15,7 16 9 28 15 WSW 993,5 7 0 1,1
04.06.2020 13:00:00 14,9 14,1 14,6 19,0 20,0 15,7 16 9 23 12 WSW 994,2 5 0 1,4
04.06.2020 12:00:00 15,5 13,7 14,7 19,8 20,0 15,7 16 9 35 19 SW 994,6 7 0 0,3
04.06.2020 11:00:00 16,5 13,5 17,0 20,9 20,0 15,7 21 11 29 16 SW 994,8 8 0 0,0
04.06.2020 10:00:00 17,6 13,5 18,6 20,9 20,0 15,7 13 7 16 9 S 994,4 10 0 0,0
04.06.2020 09:00:00 17,4 13,3 19,2 20,6 20,0 15,6 9 5 15 8 SE 994,7 16 27 0,0
04.06.2020 08:00:00 15,4 12,4 16,1 19,2 20,2 15,6 9 5 10 6 SSE 995,1 10 44 0,0
04.06.2020 07:00:00 14,3 12,1 14,5 18,1 20,4 15,6 5 3 8 4 SE 995,6 20 0 0,0
04.06.2020 06:00:00 13,0 11,8 11,7 17,9 20,6 15,6 4 2 8 4 E 996,0 25 0 0,0
04.06.2020 05:00:00 13,5 11,5 10,8 18,2 20,9 15,6 5 3 11 6 NE 996,5 10 0 0,0
04.06.2020 04:00:00 14,0 11,6 12,5 18,7 21,2 15,6 10 5 13 7 NE 997,1 40 0 0,0
04.06.2020 03:00:00 14,4 11,4 12,5 19,5 21,4 15,5 8 4 11 6 ENE 997,7 40 0 0,0
04.06.2020 02:00:00 15,9 11,5 14,5 20,0 21,7 15,5 5 3 15 8 E 998,4 40 0 0,0
04.06.2020 01:00:00 16,6 11,3 15,7 20,6 22,0 15,5 8 5 11 6 ESE 999,0 40 0 0,0
04.06.2020 00:00:00 17,0 11,4 16,1 21,0 22,2 15,5 5 3 22 12 S 1000,1 10 0 0,0
03.06.2020 23:00:00 17,7 11,3 16,7 21,6 22,5 15,5 15 8 21 11 ESE 1000,6 10 0 0,0
03.06.2020 22:00:00 17,9 11,7 17,1 22,5 22,8 15,5 14 8 28 15 E 1001,2 28 0 0,0
03.06.2020 21:00:00 18,9 12,0 18,2 23,6 23,0 15,5 16 9 29 16 E 1000,9 10 0 0,0
03.06.2020 20:00:00 20,3 11,6 19,9 25,0 23,1 15,4 21 11 37 20 E 1000,9 10 31 0,0
03.06.2020 19:00:00 21,0 11,6 21,5 25,8 23,2 15,4 22 12 38 20 E 1001,0 10 24 0,1
03.06.2020 18:00:00 21,7 12,2 21,9 27,8 23,1 15,4 20 11 42 23 E 1001,7 8 2 0,0
03.06.2020 17:00:00 23,6 9,8 24,9 31,3 22,7 15,4 27 14 38 21 ENE 1001,4 40 35 0,0
03.06.2020 16:00:00 26,9 8,3 30,4 32,2 22,3 15,4 15 8 27 14 SSW 1001,5 10 57 0,0
03.06.2020 15:00:00 27,2 9,6 32,5 31,7 21,8 15,4 15 8 29 16 SSW 1002,3 10 60 0,0
03.06.2020 14:00:00 26,3 10,8 31,3 30,5 21,3 15,4 12 6 26 14 S 1003,2 40 41 0,0
03.06.2020 13:00:00 25,9 10,4 30,6 29,9 20,8 15,3 15 8 22 12 S 1003,9 40 50 0,0
03.06.2020 12:00:00 25,8 10,8 31,5 28,8 20,3 15,3 13 7 22 12 ESE 1004,6 10 60 0,0
03.06.2020 11:00:00 24,6 10,9 29,8 26,9 19,9 15,3 11 6 18 10 SE 1005,1 10 60 0,0
03.06.2020 10:00:00 23,1 11,0 27,3 24,7 19,7 15,3 9 5 18 10 SSE 1005,5 10 60 0,0
03.06.2020 09:00:00 21,3 11,4 25,0 22,1 19,6 15,3 8 4 13 7 E 1005,9 40 60 0,0
03.06.2020 08:00:00 19,4 10,1 22,1 19,8 19,7 15,3 7 4 13 7 ESE 1006,4 40 60 0,0
03.06.2020 07:00:00 16,2 10,5 16,3 17,8 20,0 15,3 3 2 9 5 E 1006,9 40 58 0,0
03.06.2020 06:00:00 15,2 9,2 12,2 17,7 20,2 15,2 5 3 9 5 ESE 1007,2 40 2 0,0
03.06.2020 05:00:00 15,4 9,2 12,3 18,2 20,5 15,2 4 2 11 6 SSE 1007,7 40 0 0,0
03.06.2020 04:00:00 16,5 9,5 14,8 18,5 20,7 15,2 6 3 16 9 ESE 1008,5 40 0 0,0
03.06.2020 03:00:00 15,8 9,9 13,5 18,8 21,0 15,2 9 5 13 7 E 1009,1 40 0 0,0
03.06.2020 02:00:00 16,1 10,0 13,2 19,5 21,3 15,2 9 5 15 8 E 1009,9 10 0 0,0
03.06.2020 01:00:00 16,9 11,1 14,2 20,2 21,6 15,2 11 6 13 7 ENE 1010,6 10 0 0,0
03.06.2020 00:00:00 18,6 11,6 16,3 21,0 21,9 15,2 10 6 20 11 NE 1011,1 40 0 0,0
02.06.2020 23:00:00 20,1 11,2 17,6 21,9 22,1 15,2 12 7 18 10 NNE 1011,7 40 0 0,0
02.06.2020 22:00:00 20,6 9,8 15,3 23,3 22,3 15,2 4 2 5 3 E 1012,0 10 0 0,0
02.06.2020 21:00:00 24,5 9,1 21,7 25,0 22,4 15,1 4 2 5 3 ESE 1012,3 40 46 0,0
02.06.2020 20:00:00 24,7 8,7 24,3 26,2 22,3 15,1 4 2 13 7 SE 1012,7 10 44 0,0
02.06.2020 19:00:00 25,7 7,9 27,3 27,7 22,1 15,1 5 3 18 10 SE 1013,3 10 60 0,0
02.06.2020 18:00:00 25,9 7,0 28,6 29,2 21,8 15,1 9 5 20 11 SSE 1014,2 35 60 0,0
02.06.2020 17:00:00 25,6 6,7 28,8 30,3 21,4 15,1 11 6 22 12 - 1015,1 10 60 0,0
02.06.2020 16:00:00 25,6 7,6 30,0 30,8 20,9 15,1 5 3 22 12 - 1016,0 10 60 0,0
02.06.2020 15:00:00 25,4 7,5 30,7 30,4 20,4 15,1 8 4 24 13 ESE 1017,0 35 60 0,0
02.06.2020 14:00:00 24,3 7,8 29,2 29,6 19,9 15,1 11 6 26 14 ESE 1017,8 35 60 0,0
02.06.2020 13:00:00 23,5 7,4 29,4 28,2 19,3 15,1 13 7 28 15 SE 1018,6 30 60 0,0
02.06.2020 12:00:00 22,8 7,8 28,1 26,9 18,9 15,0 15 8 27 15 ESE 1019,5 10 60 0,0
02.06.2020 11:00:00 21,8 7,9 25,7 24,5 18,6 15,0 15 8 24 13 ESE 1020,1 35 60 0,0
02.06.2020 10:00:00 20,2 7,5 23,5 22,2 18,4 15,0 15 8 25 13 ESE 1020,8 30 60 0,0
02.06.2020 09:00:00 18,4 6,8 21,2 19,6 18,3 15,0 18 10 26 14 ESE 1021,1 10 60 0,0
02.06.2020 08:00:00 16,6 7,0 17,9 17,3 18,5 15,0 16 9 26 14 ESE 1021,2 10 60 0,0
02.06.2020 07:00:00 14,6 7,8 15,1 15,7 18,7 15,0 8 4 11 6 E 1021,5 10 60 0,0
02.06.2020 06:00:00 11,3 7,7 9,5 15,2 19,0 15,0 11 6 13 7 E 1021,7 30 24 0,0
02.06.2020 05:00:00 11,9 7,9 6,6 15,6 19,4 15,0 5 3 11 6 ENE 1021,9 10 0 0,0
02.06.2020 04:00:00 12,0 8,0 8,7 16,2 19,7 15,0 11 6 13 7 E 1021,9 10 0 0,0
02.06.2020 03:00:00 12,8 8,4 8,8 16,9 20,0 14,9 10 5 13 7 E 1022,3 30 0 0,0
02.06.2020 02:00:00 14,3 8,5 8,9 17,7 20,3 14,9 9 5 15 8 ENE 1022,6 10 0 0,0
02.06.2020 01:00:00 14,9 8,3 12,5 18,6 20,6 14,9 11 6 24 13 ENE 1022,7 30 0 0,0
02.06.2020 00:00:00 16,9 8,4 15,1 19,4 20,9 14,9 15 8 27 15 ENE 1022,7 30 0 0,0
01.06.2020 23:00:00 18,4 8,3 16,7 20,4 21,1 14,9 21 11 32 17 ENE 1022,5 10 0 0,0
01.06.2020 22:00:00 19,9 8,3 18,1 21,7 21,3 14,9 21 11 31 17 ENE 1022,2 10 2 0,0
01.06.2020 21:00:00 21,6 8,7 20,4 23,1 21,4 14,9 20 11 29 16 ENE 1021,8 30 17 0,0
01.06.2020 20:00:00 23,2 6,8 23,0 24,7 21,4 14,9 18 10 29 15 ENE 1021,6 10 57 0,0
01.06.2020 19:00:00 24,1 6,6 25,0 26,4 21,2 14,9 21 11 34 18 ENE 1022,0 10 60 0,0
01.06.2020 18:00:00 24,7 7,2 26,9 27,9 20,9 14,9 22 12 46 25 ENE 1022,3 10 60 0,0
01.06.2020 17:00:00 24,4 7,0 27,5 29,1 20,5 14,9 21 11 40 22 ENE 1022,8 10 60 0,0
01.06.2020 16:00:00 23,8 7,2 27,5 29,6 20,0 14,8 23 12 41 22 ENE 1023,3 45 60 0,0
01.06.2020 15:00:00 23,3 6,8 28,7 29,4 19,5 14,8 19 10 37 20 ENE 1023,6 45 60 0,0
01.06.2020 14:00:00 22,2 7,3 27,3 28,5 18,9 14,8 21 11 39 21 ENE 1024,2 45 60 0,0
01.06.2020 13:00:00 21,5 7,3 26,8 27,3 18,4 14,8 21 11 35 19 E 1024,8 10 60 0,0
01.06.2020 12:00:00 19,8 8,1 25,4 25,7 18,0 14,8 16 9 29 16 ENE 1025,3 10 60 0,0
01.06.2020 11:00:00 17,8 8,1 22,8 23,4 17,6 14,8 15 8 28 15 ENE 1025,8 10 60 0,0
01.06.2020 10:00:00 16,2 8,2 19,9 20,8 17,5 14,8 14 8 24 13 ENE 1025,7 45 60 0,0
01.06.2020 09:00:00 14,2 6,8 17,6 18,0 17,5 14,8 15 8 22 12 E 1025,9 45 60 0,0
01.06.2020 08:00:00 12,6 5,8 14,4 15,7 17,6 14,7 19 10 25 13 ENE 1025,9 45 60 0,0
01.06.2020 07:00:00 11,5 4,9 12,3 14,1 17,9 14,7 15 8 22 12 ENE 1025,7 40 60 0,0
01.06.2020 06:00:00 10,4 4,2 8,8 13,8 18,2 14,7 13 7 22 12 NE 1025,6 10 33 0,0
01.06.2020 05:00:00 10,0 3,8 7,0 14,2 18,6 14,7 9 5 18 10 NE 1025,2 40 0 0,0
01.06.2020 04:00:00 10,5 3,7 7,2 14,7 18,9 14,7 9 5 15 8 NE 1025,4 40 0 0,0
01.06.2020 03:00:00 11,1 3,6 8,0 15,5 19,2 14,7 11 6 22 12 ENE 1025,6 40 0 0,0
01.06.2020 02:00:00 12,9 3,9 10,7 16,3 19,6 14,7 16 9 24 13 ENE 1025,7 40 0 0,0
01.06.2020 01:00:00 14,0 5,5 11,5 17,2 19,9 14,7 14 8 27 15 ENE 1025,8 40 0 0,0
01.06.2020 00:00:00 15,1 7,3 13,0 18,2 20,1 14,7 18 10 31 17 ENE 1025,3 10 0 0,0
31.05.2020 23:00:00 16,3 8,9 14,4 19,2 20,4 14,7 16 9 23 12 NE 1024,9 40 0 0,0
31.05.2020 22:00:00 17,6 8,2 16,0 20,3 20,6 14,6 18 10 23 13 NE 1024,4 10 0 0,0
31.05.2020 21:00:00 18,7 6,1 17,3 21,7 20,7 14,6 15 8 31 17 NE 1023,8 10 57 0,0
31.05.2020 20:00:00 19,7 4,9 19,9 23,3 20,7 14,6 22 12 35 19 NE 1023,5 10 60 0,0
31.05.2020 19:00:00 20,4 6,3 21,8 24,8 20,6 14,6 21 11 40 21 NE 1023,4 10 60 0,0
31.05.2020 18:00:00 20,9 6,2 23,3 26,4 20,3 14,6 24 13 34 18 ENE 1023,3 10 60 0,0
31.05.2020 17:00:00 21,1 7,0 24,2 27,6 19,9 14,6 16 9 36 20 NE 1023,5 10 59 0,0
31.05.2020 16:00:00 20,8 7,1 24,4 27,9 19,5 14,6 22 12 37 20 E 1023,9 40 60 0,0
31.05.2020 15:00:00 20,8 7,4 25,4 27,7 19,1 14,6 24 13 44 24 ENE 1024,0 10 57 0,0
31.05.2020 14:00:00 19,9 6,4 25,1 26,4 18,7 14,5 26 14 41 22 ENE 1024,2 10 45 0,0
31.05.2020 13:00:00 19,1 5,8 23,6 25,8 18,2 14,5 30 16 48 26 NE 1024,5 40 56 0,0
31.05.2020 12:00:00 18,6 6,9 24,7 24,5 17,9 14,5 23 12 41 22 NE 1024,9 50 58 0,0
31.05.2020 11:00:00 17,8 6,9 22,9 22,6 17,6 14,5 17 9 35 19 NNE 1025,3 50 60 0,0
31.05.2020 10:00:00 16,6 6,5 21,0 20,6 17,4 14,5 22 12 31 17 NNE 1025,6 50 60 0,0
31.05.2020 09:00:00 15,4 6,4 18,6 17,6 17,5 14,5 16 9 22 12 ENE 1025,7 60 60 0,0
31.05.2020 08:00:00 13,1 6,6 15,2 15,8 17,6 14,5 14 7 22 12 NE 1025,8 60 60 0,0
31.05.2020 07:00:00 11,6 6,5 11,9 14,6 17,9 14,4 11 6 16 9 NE 1025,6 40 14 0,0
31.05.2020 06:00:00 10,2 6,0 8,9 14,1 18,2 14,4 11 6 15 8 NE 1025,5 25 0 0,0
31.05.2020 05:00:00 10,0 6,0 7,4 14,4 18,5 14,4 9 5 13 7 NNE 1025,4 25 0 0,0
31.05.2020 04:00:00 10,7 6,0 8,3 14,9 18,8 14,4 10 5 21 11 NE 1025,5 40 0 0,0
31.05.2020 03:00:00 11,5 5,9 9,4 15,4 19,1 14,4 11 6 15 8 ENE 1025,5 40 0 0,0
31.05.2020 02:00:00 11,6 5,1 7,7 16,1 19,5 14,4 8 4 16 9 NE 1025,5 10 0 0,0
31.05.2020 01:00:00 13,2 4,8 10,9 16,9 19,8 14,4 11 6 21 11 ENE 1025,2 10 0 0,0
31.05.2020 00:00:00 14,1 4,7 11,5 17,7 20,1 14,4 13 7 18 10 ENE 1024,9 35 0 0,0
30.05.2020 23:00:00 14,1 5,0 10,5 18,7 20,4 14,3 9 5 21 11 ENE 1024,8 35 0 0,0
30.05.2020 22:00:00 16,4 5,0 14,4 20,0 20,7 14,3 14 8 22 12 NE 1024,6 35 6 0,0
30.05.2020 21:00:00 18,0 4,3 16,5 21,6 20,9 14,3 16 9 36 20 NE 1024,0 10 39 0,0

tt = temperature
td = dewpoint
tt 5cm = temperature 5cm
tt -5cm = temperature -5cm
tt -20cm = temperature -20cm
tt -100cm = temperature -100cm
ff = wind speed
fx = gusts
dd = wind direction
ppp = reduced air pressure
vv = visibility
sd = sunshine duration
rr = precipitation

Next stations